Location: Rowland
(34.5359°N, 79.2929°W)
Time: 14:34:32
(UTC+00:00)

Transit 4A - Pass Details

Date: 11 October 2022
Orbit: 871 x 972 km, 66.8° (Epoch: 29 November)

Event Time Altitude Azimuth Distance (km) Brightness Sun altitude
Rises 23:29:23 0° 165° (SSE) 3,614 10.8 -9.4°
Reaches altitude 10° 23:32:41 10° 148° (SSE) 2,657 10.0 -10.1°
Maximum altitude 23:36:53 19° 105° (ESE) 2,051 9.1 -10.9°
Enters shadow 23:40:07 13° 69° (ENE) 2,413 9.5 -11.6°
Drops below altitude 10° 23:41:01 10° 62° (ENE) 2,619 - -11.8°
Sets 23:44:13 0° 45° (NE) 3,546 - -12.4°
